Location: *
(46.4000°N, 12.6667°E)
Time: 14:22:13
(UTC+00:00)

Envisat - Pass Details

Date: 08 March 2021
Orbit: 764 x 766 km, 98.1° (Epoch: 17 April)

Event Time Altitude Azimuth Distance (km) Brightness Sun altitude
Rises 03:33:06 0° 29° (NNE) 3,243 6.9 -21.7°
Reaches altitude 10° 03:36:18 10° 50° (NE) 2,310 6.4 -21.2°
Maximum altitude 03:39:28 16° 89° (E) 1,894 6.0 -20.7°
Drops below altitude 10° 03:42:38 10° 128° (SE) 2,298 5.9 -20.2°
Sets 03:45:47 0° 149° (SSE) 3,218 6.4 -19.6°
